Weather History for Ankeny, IA

Change the Weather History Date:

Thursday, December 5, 2013

  Actual Average (KDSM) Record (KDSM)
Temperature  
Mean Temperature 12 °F 29 °F  
Max Temperature 17 °F 37 °F 67 °F (1975)
Min Temperature 6 °F 21 °F -6 °F (1886)
Degree Days  
Heating Degree Days 52 36  
Month to date heating degree days 175  
Since 1 July heating degree days 1433  
Cooling Degree Days 0 0  
Month to date cooling degree days 0  
Year to date cooling degree days 1066  
Moisture  
Dew Point 3 °F    
Average Humidity 64    
Maximum Humidity 73    
Minimum Humidity 57    
Precipitation  
Precipitation 0.00 in 0.05 in 1.04 in (1982)
Month to date precipitation 0.27  
Year to date precipitation 34.87  
Snow  
Snow 0.00 in 0.30 in 5.50 in (1977)
Month to date snowfall 1.4  
Since 1 July snowfall 4.3  
Snow Depth -    
Sea Level Pressure  
Sea Level Pressure 30.21 in    
Wind  
Wind Speed 19 mph (WNW)    
Max Wind Speed 26 mph    
Max Gust Speed 38 mph    
Visibility 10 miles    
Events Rain , Snow    
T = Trace of Precipitation, MM = Missing Value Source: NWS Daily Summary

Daily Weather History Graph

Daily Weather History Graph

Search for Another Location

Airport:

Trip Planner

Search our weather history database for the weather conditions in past years. The results will help you decide how hot, cold, wet, or windy it might be!

Date:

Astronomy

Dec. 05, 2013 Rise Set
Actual Time 7:26 AM CST 4:43 PM CST
Civil Twilight 6:54 AM CST 5:15 PM CST
Nautical Twilight 6:20 AM CST 5:49 PM CST
Astronomical Twilight 5:46 AM CST 6:23 PM CST
Moon 9:45 AM CST (12/5) 8:06 PM CST (12/5)
Length of Visible Light 10h 20m
Length of Day
9h 17m
Waxing Crescent, 11% of the Moon is Illuminated
Dec 5
Waxing Crescent
Dec 9
First Quarter
Dec 17
Full
Dec 25
Last Quarter
Jan 1
New

Hourly Weather History & Observations

Time (CST) Temp. Windchill Dew Point Humidity Pressure Visibility Wind Dir Wind Speed Gust Speed Precip Events Conditions
12:15 AM 17.6 °F -1.0 °F 10.4 °F 73% 29.93 in 10.0 mi WNW 26.5 mph 38.0 mph N/A Snow Light Snow
12:35 AM 17.6 °F 2.2 °F 10.4 °F 73% 29.92 in 10.0 mi WNW 17.3 mph 25.3 mph N/A   Overcast
12:55 AM 17.6 °F 0.9 °F 8.6 °F 68% 29.95 in 10.0 mi WNW 20.7 mph 31.1 mph N/A Snow Light Snow
1:15 AM 17.6 °F 0.1 °F 10.4 °F 73% 29.98 in 10.0 mi West 23.0 mph 28.8 mph N/A   Overcast
1:35 AM 15.8 °F -1.9 °F 8.6 °F 73% 29.97 in 10.0 mi WNW 21.9 mph 28.8 mph N/A Rain Light Freezing Rain
1:55 AM 15.8 °F -1.1 °F 8.6 °F 73% 29.97 in 10.0 mi WNW 19.6 mph 27.6 mph N/A   Overcast
2:15 AM 15.8 °F 0.9 °F 6.8 °F 68% 30.00 in 10.0 mi WNW 15.0 mph 31.1 mph N/A Rain Light Freezing Rain
2:35 AM 15.8 °F -0.2 °F 5.0 °F 62% 30.01 in 10.0 mi WNW 17.3 mph 31.1 mph N/A   Overcast
2:55 AM 14.0 °F -5.8 °F 6.8 °F 73% 30.03 in 10.0 mi WNW 26.5 mph 32.2 mph N/A   Overcast
3:15 AM 14.0 °F -3.0 °F 5.0 °F 67% 30.05 in 10.0 mi WNW 18.4 mph 34.5 mph N/A Snow Light Snow
3:35 AM 14.0 °F -4.7 °F 5.0 °F 67% 30.06 in 10.0 mi WNW 23.0 mph 32.2 mph N/A   Overcast
3:55 AM 14.0 °F -4.7 °F 5.0 °F 67% 30.07 in 10.0 mi WNW 23.0 mph 31.1 mph N/A   Overcast
4:15 AM 14.0 °F -4.7 °F 6.8 °F 73% 30.07 in 10.0 mi WNW 23.0 mph - N/A   Overcast
4:35 AM 14.0 °F -5.1 °F 5.0 °F 67% 30.08 in 8.0 mi WNW 24.2 mph 32.2 mph N/A Snow Light Snow
4:55 AM 14.0 °F -3.9 °F 5.0 °F 67% 30.09 in 10.0 mi WNW 20.7 mph 34.5 mph N/A   Light Freezing Rain
5:15 AM 12.2 °F -6.3 °F 5.0 °F 73% 30.09 in 10.0 mi NW 20.7 mph 27.6 mph N/A Rain Light Freezing Rain
5:35 AM 12.2 °F -5.8 °F 3.2 °F 67% 30.10 in 10.0 mi WNW 19.6 mph 31.1 mph N/A   Overcast
5:55 AM 12.2 °F -5.8 °F 3.2 °F 67% 30.12 in 10.0 mi WNW 19.6 mph 31.1 mph N/A   Overcast
6:15 AM 10.4 °F -8.6 °F 3.2 °F 73% 30.13 in 10.0 mi West 20.7 mph 28.8 mph N/A   Overcast
6:35 AM 10.4 °F -7.7 °F 3.2 °F 73% 30.14 in 10.0 mi WNW 18.4 mph - N/A   Overcast
6:55 AM 10.4 °F -5.4 °F 1.4 °F 67% 30.15 in 10.0 mi WNW 13.8 mph 23.0 mph N/A   Overcast
7:15 AM 10.4 °F -8.6 °F 1.4 °F 67% 30.15 in 10.0 mi WNW 20.7 mph - N/A   Overcast
7:35 AM 10.4 °F -8.6 °F 1.4 °F 67% 30.17 in 10.0 mi WNW 20.7 mph 31.1 mph N/A   Overcast
7:55 AM 10.4 °F -7.2 °F 1.4 °F 67% 30.17 in 10.0 mi WNW 17.3 mph 27.6 mph N/A   Mostly Cloudy
8:15 AM 10.4 °F -8.2 °F 1.4 °F 67% 30.17 in 10.0 mi WNW 19.6 mph - N/A   Mostly Cloudy
8:35 AM 10.4 °F -6.0 °F 1.4 °F 67% 30.18 in 10.0 mi NW 15.0 mph 23.0 mph N/A   Mostly Cloudy
8:55 AM 10.4 °F -8.2 °F 1.4 °F 67% 30.19 in 10.0 mi NW 19.6 mph - N/A   Scattered Clouds
9:15 AM 10.4 °F -8.2 °F 1.4 °F 67% 30.21 in 10.0 mi WNW 19.6 mph - N/A   Partly Cloudy
9:35 AM 12.2 °F -3.7 °F 1.4 °F 62% 30.22 in 10.0 mi NW 15.0 mph 21.9 mph N/A   Clear
9:55 AM 12.2 °F -3.7 °F 1.4 °F 62% 30.22 in 10.0 mi WNW 15.0 mph 23.0 mph N/A   Clear
10:15 AM 12.2 °F -4.3 °F 1.4 °F 62% 30.23 in 10.0 mi WNW 16.1 mph - N/A   Clear
10:35 AM 14.0 °F -2.0 °F 3.2 °F 62% 30.25 in 10.0 mi WNW 16.1 mph 23.0 mph N/A   Clear
10:55 AM 14.0 °F -1.4 °F 3.2 °F 62% 30.25 in 10.0 mi NW 15.0 mph 21.9 mph N/A   Clear
11:15 AM 14.0 °F -3.0 °F 5.0 °F 67% 30.23 in 10.0 mi WNW 18.4 mph - N/A   Clear
11:35 AM 14.0 °F -2.5 °F 3.2 °F 62% 30.23 in 10.0 mi WNW 17.3 mph - N/A   Clear
11:55 AM 14.0 °F -3.0 °F 3.2 °F 62% 30.23 in 10.0 mi WNW 18.4 mph 24.2 mph N/A   Clear
12:15 PM 14.0 °F -3.0 °F 3.2 °F 62% 30.24 in 10.0 mi West 18.4 mph 24.2 mph N/A   Clear
12:35 PM 15.8 °F 0.9 °F 5.0 °F 62% 30.23 in 10.0 mi WNW 15.0 mph 20.7 mph N/A   Clear
12:55 PM 15.8 °F 2.1 °F 5.0 °F 62% 30.22 in 10.0 mi WNW 12.7 mph 18.4 mph N/A   Partly Cloudy
1:15 PM 17.6 °F 3.2 °F 5.0 °F 58% 30.23 in 10.0 mi WNW 15.0 mph - N/A   Partly Cloudy
1:35 PM 17.6 °F 3.2 °F 5.0 °F 58% 30.22 in 10.0 mi NW 15.0 mph - N/A   Partly Cloudy
1:55 PM 17.6 °F 3.2 °F 5.0 °F 58% 30.22 in 10.0 mi WNW 15.0 mph 20.7 mph N/A   Scattered Clouds
2:15 PM 17.6 °F 3.7 °F 5.0 °F 58% 30.23 in 10.0 mi WNW 13.8 mph - N/A   Scattered Clouds
2:35 PM 17.6 °F 3.7 °F 5.0 °F 58% 30.22 in 10.0 mi WNW 13.8 mph 20.7 mph N/A   Mostly Cloudy
2:55 PM 17.6 °F 3.7 °F 5.0 °F 58% 30.21 in 10.0 mi WNW 13.8 mph - N/A   Mostly Cloudy
3:15 PM 15.8 °F -1.1 °F 5.0 °F 62% 30.22 in 10.0 mi WNW 19.6 mph 25.3 mph N/A   Partly Cloudy
3:35 PM 15.8 °F 0.3 °F 3.2 °F 58% 30.22 in 10.0 mi NW 16.1 mph 21.9 mph N/A   Clear
3:55 PM 15.8 °F 0.9 °F 5.0 °F 62% 30.24 in 10.0 mi WNW 15.0 mph - N/A   Clear
4:15 PM 15.8 °F 1.4 °F 3.2 °F 58% 30.26 in 10.0 mi WNW 13.8 mph 19.6 mph N/A   Clear
4:35 PM 15.8 °F 2.7 °F 3.2 °F 58% 30.27 in 10.0 mi WNW 11.5 mph 20.7 mph N/A   Clear
4:55 PM 14.0 °F -1.4 °F 3.2 °F 62% 30.28 in 10.0 mi WNW 15.0 mph - N/A   Clear
5:15 PM 14.0 °F 2.0 °F 3.2 °F 62% 30.29 in 10.0 mi WNW 9.2 mph 17.3 mph N/A   Clear
5:35 PM 14.0 °F -0.8 °F 3.2 °F 62% 30.30 in 10.0 mi WNW 13.8 mph - N/A   Clear
5:55 PM 14.0 °F -2.5 °F 3.2 °F 62% 30.31 in 10.0 mi WNW 17.3 mph - N/A   Clear
6:15 PM 14.0 °F 0.5 °F 3.2 °F 62% 30.31 in 10.0 mi NW 11.5 mph 18.4 mph N/A   Clear
6:35 PM 14.0 °F -1.4 °F 3.2 °F 62% 30.32 in 10.0 mi NW 15.0 mph - N/A   Clear
6:55 PM 14.0 °F -3.0 °F 1.4 °F 57% 30.32 in 10.0 mi NW 18.4 mph 24.2 mph N/A Snow Light Snow
7:15 PM 14.0 °F -0.8 °F 1.4 °F 57% 30.32 in 10.0 mi NW 13.8 mph - N/A   Clear
7:35 PM 12.2 °F -3.1 °F 1.4 °F 62% 30.33 in 10.0 mi NW 13.8 mph 21.9 mph N/A Snow Light Snow
7:55 PM 12.2 °F -3.1 °F 1.4 °F 62% 30.34 in 10.0 mi NW 13.8 mph - N/A   Clear
8:15 PM 12.2 °F -1.8 °F 1.4 °F 62% 30.34 in 10.0 mi NW 11.5 mph 19.6 mph N/A Snow Light Snow
8:35 PM 12.2 °F -3.1 °F -0.4 °F 57% 30.33 in 10.0 mi NW 13.8 mph 23.0 mph N/A Snow Light Snow
8:55 PM 10.4 °F -6.0 °F -0.4 °F 62% 30.34 in 10.0 mi NW 15.0 mph 24.2 mph N/A Snow Light Snow
9:15 PM 10.4 °F -7.2 °F -0.4 °F 62% 30.34 in 10.0 mi NW 17.3 mph 25.3 mph N/A Snow Light Snow
9:35 PM 10.4 °F -6.0 °F -2.2 °F 57% 30.35 in 10.0 mi NNW 15.0 mph 21.9 mph N/A   Light Freezing Rain
9:55 PM 10.4 °F -6.6 °F -2.2 °F 57% 30.36 in 10.0 mi NNW 16.1 mph 23.0 mph N/A   Clear
10:15 PM 10.4 °F -4.1 °F -0.4 °F 62% 30.38 in 10.0 mi NW 11.5 mph 18.4 mph N/A   Clear
10:35 PM 8.6 °F -7.7 °F -2.2 °F 62% 30.39 in 10.0 mi NW 13.8 mph 21.9 mph N/A   Clear
10:55 PM 8.6 °F -7.7 °F -2.2 °F 62% 30.41 in 10.0 mi NW 13.8 mph - N/A   Partly Cloudy
11:15 PM 8.6 °F -7.7 °F -2.2 °F 62% 30.40 in 10.0 mi NW 13.8 mph 20.7 mph N/A   Partly Cloudy
11:35 PM 8.6 °F -7.0 °F -2.2 °F 62% 30.40 in 10.0 mi NW 12.7 mph 19.6 mph N/A   Clear
11:55 PM 6.8 °F -8.6 °F -2.2 °F 67% 30.40 in 10.0 mi NW 11.5 mph - N/A   Clear